Regional Weather Roundup
Issued by NWS

Home | Current Version | Previous Version | Text Only | Print | Product List | Glossary Off
Versions: 1 2 3 4 5 6 7 8 9 10 11 12 13 14 15 16 17 18 19 20 21 22 23 24 25 26 27 28 29 30 31 32 33 34 35 36 37 38 39 40 41 42 43 44 45 46 47 48 49 50

000
ASUS43 KLMK 280102
RWRKY
KENTUCKY REGIONAL WEATHER ROUNDUP
NATIONAL WEATHER SERVICE LOUISVILLE KY
900 PM EDT WED AUG 27 2014

NOTE "FAIR" INDICATES FEW OR NO CLOUDS BELOW 12,000 FEET
WITH NO SIGNIFICANT WEATHER AND/OR OBSTRUCTIONS TO VISIBILITY.

KYZ001>023-026-027-061>063-070>075-280200-
WESTERN AND SOUTH CENTRAL KENTUCKY

CITY           SKY/WX    TMP DP  RH WIND       PRES   REMARKS
PADUCAH        PTCLDY    83  72  69 S5        30.02R
HENDERSON      PTCLDY    81  73  78 CALM      30.03R
OWENSBORO      PTCLDY    85  76  74 CALM      30.03R HX  94
HOPKINSVILLE   PTCLDY    83  72  70 VRB3      30.04R
BOWLING GREEN  PTCLDY    83  72  69 CALM      30.04R
GLASGOW        CLEAR     79  71  78 CALM      30.04S
$$

KYZ024-025-028>034-038-045-046-053-280200-
NORTH CENTRAL KENTUCKY

CITY           SKY/WX    TMP DP  RH WIND       PRES   REMARKS
LOUISVILLE/SDF CLOUDY    75  71  87 W7        30.04R
LOUISVILLE/LOU CLOUDY    75  72  90 CALM      30.05R
FORT KNOX      CLOUDY    72  72 100 CALM      30.05S
$$

KYZ035>037-039>044-047>052-055>060-089>105-280200-
NORTHEAST KENTUCKY

CITY           SKY/WX    TMP DP  RH WIND       PRES   REMARKS
LEXINGTON      CLOUDY    73  68  84 CALM      30.05F
COVINGTON      MOCLDY    83  70  64 N7        30.04R
FRANKFORT      CLOUDY    72  69  90 CALM      30.04S
$$

KYZ054-064>069-076>088-106>120-280200-
SOUTHEAST KENTUCKY

CITY           SKY/WX    TMP DP  RH WIND       PRES   REMARKS
JACKSON        CLEAR     77  68  73 CALM      30.07S
LONDON         CLEAR     78  70  76 CALM      30.08R
SOMERSET       CLOUDY    77  70  78 CALM      30.07S
MIDDLESBORO    CLEAR     74  66  77 W5        30.08R
MONTICELLO     CLEAR     75  73  93 CALM      30.08R
$$



USA.gov is the U.S. government's official web portal to all federal, state and local government web resources and services.